TimeCST,TemperatureF,Dew PointF,Humidity,Sea Level PressureIn,VisibilityMPH,Wind Direction,Wind SpeedMPH,Gust SpeedMPH,PrecipitationIn,Events,Conditions,WindDirDegrees,DateUTC
12:52 AM,21.9,15.1,75,30.55,10.0,NW,10.4,-,N/A,,Clear,320,2013-11-12 06:52:00
1:52 AM,21.0,15.1,78,30.56,10.0,NW,10.4,-,N/A,,Clear,320,2013-11-12 07:52:00
2:52 AM,21.0,15.1,78,30.58,10.0,NW,10.4,-,N/A,,Clear,320,2013-11-12 08:52:00
3:52 AM,21.0,15.1,78,30.61,10.0,NW,11.5,-,N/A,,Clear,320,2013-11-12 09:52:00
4:52 AM,21.9,15.1,75,30.63,10.0,NNW,11.5,-,N/A,,Clear,330,2013-11-12 10:52:00
5:52 AM,21.0,15.1,78,30.67,10.0,NNW,11.5,-,N/A,,Clear,330,2013-11-12 11:52:00
6:52 AM,19.9,14.0,78,30.68,10.0,NW,8.1,-,N/A,,Clear,320,2013-11-12 12:52:00
7:52 AM,21.9,15.1,75,30.71,10.0,NNW,10.4,-,N/A,,Clear,330,2013-11-12 13:52:00
8:52 AM,24.1,16.0,71,30.72,10.0,NNW,11.5,-,N/A,,Clear,330,2013-11-12 14:52:00
9:52 AM,26.1,17.1,69,30.72,10.0,NNW,8.1,-,N/A,,Clear,330,2013-11-12 15:52:00
10:52 AM,28.0,19.0,69,30.73,10.0,NNW,5.8,-,N/A,,Clear,330,2013-11-12 16:52:00
11:52 AM,30.0,19.0,64,30.71,10.0,WNW,10.4,-,N/A,,Clear,300,2013-11-12 17:52:00
12:52 PM,30.0,18.0,61,30.69,10.0,NW,11.5,-,N/A,,Clear,310,2013-11-12 18:52:00
1:52 PM,32.0,19.0,59,30.69,10.0,NW,10.4,-,N/A,,Clear,310,2013-11-12 19:52:00
2:52 PM,32.0,19.0,59,30.68,10.0,WNW,11.5,-,N/A,,Clear,300,2013-11-12 20:52:00
3:52 PM,30.0,17.1,59,30.66,10.0,West,11.5,-,N/A,,Clear,280,2013-11-12 21:52:00
4:52 PM,27.0,17.1,66,30.66,10.0,WNW,8.1,-,N/A,,Clear,290,2013-11-12 22:52:00
5:52 PM,25.0,16.0,69,30.66,10.0,West,6.9,-,N/A,,Clear,280,2013-11-12 23:52:00
6:52 PM,23.0,15.1,72,30.66,10.0,WNW,5.8,-,N/A,,Clear,290,2013-11-13 00:52:00
7:52 PM,23.0,16.0,74,30.65,10.0,West,3.5,-,N/A,,Clear,260,2013-11-13 01:52:00
8:52 PM,21.0,15.1,78,30.65,10.0,West,4.6,-,N/A,,Clear,260,2013-11-13 02:52:00
9:52 PM,21.9,16.0,78,30.64,10.0,West,4.6,-,N/A,,Clear,280,2013-11-13 03:52:00
10:52 PM,19.9,14.0,78,30.63,10.0,West,3.5,-,N/A,,Clear,260,2013-11-13 04:52:00
11:52 PM,19.0,14.0,81,30.61,10.0,SW,4.6,-,N/A,,Clear,230,2013-11-13 05:52:00